ATLAS 5 CENTAUR DEB, 44674

Orbit data source: Space-Track

ATLAS 5 CENTAUR DEB, 44674 is space debris in HEO originally from a launch on Wed, 17 Oct 2018 UTC launched from the Air Force Eastern Test Range (AFETR). Debris objects in space refer to the collection of defunct objects orbiting the Earth. Examples of debris include non-operational satellites, rocket bodies, and fragments generated from explosions, collisions, or faulty payload assembly.

Loading next visibility...
ATLAS 5 CENTAUR DEB details
Identifier
44674, 2018-079AL
Orbit
HEO
Last TLE update1 day ago
Origin
Flag of USULA (US)
ManufacturerULA Decatur
MissionSpacecraft
Bus & MotorUnknown
MassUnknown
Launch date (UTC)
2018-10-17 (6 years ago)
Launch vehicleUnknown
Launch site
Air Force Eastern Test Range (AFETR)
Object type
Payload
Rocket body
Debris
Shape & HBRUnknown
Radar Cross SectionRCS unknown

Expand to show TLE details & history

TLE from 1 day ago
0 ATLAS 5 CENTAUR DEB
1 44674U 18079AL  24360.21234822 -.00000088  00000-0  00000+0 0  9995
2 44674  12.3434  86.6774 4418813 236.8620  72.8156  1.93818396 39096
Epoch: 2024-12-25T05:05Z
Definitive object data (Epoch: 2024-12-25T05:05:46.886Z)
Latitude
Longitude-84.04133°
Altitude22,469.405 km
Speed3.601 km/s
True Right ascension05h 46m 27s
True Declination0° 00' 00"
Sunlit
Object was in daylight at TLE epoch
Visualization TLE readout
Latitude12.22832°
Longitude-2.66527°
Altitude30,159.078 km
Speed2.674 km/s
Apparent Right ascension11h 16m 00s
Apparent Declination6° 45' 55"
Sunlit
Object is in daylight
Visualization observer readout
Local Sidereal Time10:46:26
Azimuth166.727° S
Elevation56.192°
Doppler factor1
Orbital elements
Apogee altitude32,805.226 km
Perigee altitude8,788.831 km
Semi-major axis27,175.166 km
Eccentricity0.4418813
Inclination12.3434°
RAAN86.6774°
Arg. of periapsis236.862°
True anomaly123.09828°
Mean anomaly72.8156°
Eccentric anomaly97.89364°
Mean motion0.48449 °/min
BSTARUnknown
Orbital period743.05 mins
Loading maneuver chart data...

ATLAS 5 CENTAUR DEB Visibility forecast

Observer location: undefined°, undefined

Span
Click to sort rows by Start time (UTC) header in descending order
Start Az.
Max El. time (UTC)
Max El. Az.
Max El.
End time (UTC)
End Az.
210 mins2024-12-26 11:25:05.482Z166.735° S2024-12-26 11:31:05.482Z166.752° S39.717°2024-12-26 14:55:05.482Z118.743° SE
381 mins2024-12-27 05:04:05.482Z220.515° SW2024-12-27 11:25:05.482Z190.78° SSW39.685°2024-12-27 11:25:05.482Z190.78° SSW
|